カタログに戻る

STARLINK-31903

運用中通信VLEO
NORAD 59845·PAYLOAD·🇺🇸 United States

打ち上げ May 23, 2024 から Cape Canaveral Space Force Station

Loading…

次のパス (今後24時間)

TLE

最新Source: CelesTrak SupGP

元期: Sep 14, 2026, 21:22 UTC

1 59845C 24097L   26257.89076389  .00016702  00000+0  60506-3 0  2577
2 59845  42.9996 278.8539 0001469 265.0481  88.8317 15.27563379    14

AllMySatでSTARLINK-31903をリアルタイム追跡

Download on the App Store